Simultaneous Nadir Overpasses (SNOs) Predictions

Prediction of SNOs between AQUA and NPP Satellite Orbit:

Table of predicted SNOs for the next 14.0 days since TLE Epoch: 11/13/2020
Index Date (AQUA) Time (AQUA) Lat,Lon (AQUA) SZA (AQUA ) Date (NPP) Time (NPP) Lat,Lon (NPP) SZA (NPP ) Distance(km) Time Diff (sec)
1 11/13/2020 21:48:51 75.15, 89.38 115.05 11/13/2020 21:47:52 75.14, 89.34 115.12 1.50 59
2 11/13/2020 22:37:55 -76.29, -99.61 66.14 11/13/2020 22:38:13 -76.29, -99.66 66.14 1.26 18
3 11/16/2020 14:05:06 75.81,-152.85 115.04 11/16/2020 14:04:31 75.82,-152.78 115.06 2.11 35
4 11/16/2020 14:54:19 -76.50, 16.96 65.68 11/16/2020 14:55:02 -76.49, 16.86 65.69 2.97 43
5 11/19/2020 06:21:29 76.07, -36.19 115.42 11/19/2020 06:21:19 76.07, -36.17 115.43 0.66 10
6 11/19/2020 07:10:35 -77.08, 134.90 65.66 11/19/2020 07:11:42 -77.09, 134.98 65.74 2.02 67
7 11/21/2020 21:48:46 -75.34, -90.08 63.22 11/21/2020 21:47:44 -75.35, -90.05 63.17 1.09 62
8 11/21/2020 22:37:51 76.37, 80.64 115.72 11/21/2020 22:38:06 76.37, 80.64 115.71 0.05 15
9 11/24/2020 14:05:05 -75.74, 26.93 63.05 11/24/2020 14:04:28 -75.74, 26.96 63.02 1.09 37
10 11/24/2020 14:54:11 76.70,-162.35 115.94 11/24/2020 14:54:51 76.70,-162.35 115.90 0.12 40
11 11/27/2020 06:21:24 -76.17, 144.13 62.97 11/27/2020 06:21:12 -76.17, 144.19 62.97 1.83 12
